TimeCST,TemperatureF,Dew PointF,Humidity,Sea Level PressureIn,VisibilityMPH,Wind Direction,Wind SpeedMPH,Gust SpeedMPH,PrecipitationIn,Events,Conditions,WindDirDegrees,DateUTC
12:15 AM,24.6,11.8,58,30.29,10.0,South,8.1,-,N/A,,Mostly Cloudy,170,2013-01-27 06:15:00
12:35 AM,24.6,11.7,58,30.29,10.0,South,8.1,-,N/A,,Mostly Cloudy,170,2013-01-27 06:35:00
12:55 AM,24.6,11.8,58,30.30,10.0,South,6.9,-,N/A,,Mostly Cloudy,170,2013-01-27 06:55:00
1:15 AM,23.9,12.2,61,30.29,10.0,SSE,6.9,-,N/A,,Overcast,160,2013-01-27 07:15:00
1:35 AM,23.9,11.8,60,30.28,10.0,SSE,9.2,-,N/A,,Scattered Clouds,160,2013-01-27 07:35:00
1:55 AM,23.9,11.8,60,30.28,10.0,South,8.1,-,N/A,,Scattered Clouds,170,2013-01-27 07:55:00
2:15 AM,24.8,12.0,58,30.28,10.0,South,8.1,-,N/A,,Scattered Clouds,170,2013-01-27 08:15:00
2:35 AM,25.7,12.2,57,30.27,10.0,South,10.4,-,N/A,,Mostly Cloudy,170,2013-01-27 08:35:00
2:55 AM,26.2,12.0,55,30.27,10.0,South,8.1,-,N/A,,Overcast,170,2013-01-27 08:55:00
3:15 AM,26.4,12.6,56,30.24,10.0,SSE,8.1,-,N/A,,Mostly Cloudy,150,2013-01-27 09:15:00
3:35 AM,26.4,12.9,57,30.26,10.0,South,5.8,-,N/A,,Mostly Cloudy,170,2013-01-27 09:35:00
3:55 AM,26.6,12.9,56,30.25,10.0,South,6.9,-,N/A,,Scattered Clouds,180,2013-01-27 09:55:00
4:15 AM,26.6,13.1,57,30.24,10.0,SSE,8.1,-,N/A,,Clear,160,2013-01-27 10:15:00
4:35 AM,26.6,13.8,59,30.23,10.0,SSE,8.1,-,N/A,,Clear,160,2013-01-27 10:35:00
4:55 AM,26.6,13.8,59,30.24,10.0,SSE,9.2,-,N/A,,Scattered Clouds,160,2013-01-27 10:55:00
5:15 AM,26.8,14.2,59,30.23,10.0,SSE,8.1,-,N/A,,Scattered Clouds,160,2013-01-27 11:15:00
5:35 AM,27.0,14.5,60,30.22,10.0,SSE,6.9,-,N/A,,Clear,150,2013-01-27 11:35:00
5:55 AM,27.1,14.9,60,30.21,10.0,SSE,6.9,-,N/A,,Scattered Clouds,150,2013-01-27 11:55:00
6:15 AM,27.3,15.6,61,30.22,10.0,SSE,9.2,-,N/A,,Mostly Cloudy,160,2013-01-27 12:15:00
6:35 AM,27.5,16.2,62,30.22,10.0,SSE,8.1,-,N/A,,Overcast,160,2013-01-27 12:35:00
6:55 AM,27.5,16.3,63,30.22,10.0,SSE,10.4,-,N/A,,Mostly Cloudy,150,2013-01-27 12:55:00
7:15 AM,27.5,16.7,64,30.22,10.0,South,9.2,-,N/A,,Mostly Cloudy,170,2013-01-27 13:15:00
7:35 AM,27.5,17.2,65,30.21,10.0,SSE,9.2,-,N/A,,Overcast,150,2013-01-27 13:35:00
7:55 AM,27.9,17.6,65,30.22,10.0,SSE,8.1,-,N/A,,Mostly Cloudy,160,2013-01-27 13:55:00
8:15 AM,28.4,18.0,65,30.23,10.0,South,9.2,-,N/A,,Scattered Clouds,170,2013-01-27 14:15:00
8:35 AM,28.4,17.8,64,30.23,10.0,SSE,8.1,-,N/A,,Mostly Cloudy,160,2013-01-27 14:35:00
8:55 AM,29.1,18.0,63,30.22,10.0,South,12.7,17.3,N/A,,Mostly Cloudy,170,2013-01-27 14:55:00
9:15 AM,29.3,18.5,64,30.22,10.0,SSE,10.4,-,N/A,,Mostly Cloudy,160,2013-01-27 15:15:00
9:35 AM,29.8,18.5,63,30.21,10.0,South,13.8,-,N/A,,Overcast,170,2013-01-27 15:35:00
9:55 AM,30.2,18.7,62,30.20,10.0,South,10.4,16.1,N/A,,Overcast,170,2013-01-27 15:55:00
10:15 AM,30.7,19.2,62,30.21,10.0,South,11.5,-,N/A,,Overcast,170,2013-01-27 16:15:00
10:35 AM,30.4,19.2,63,30.20,10.0,South,11.5,-,N/A,,Overcast,170,2013-01-27 16:35:00
10:55 AM,30.7,19.4,63,30.17,10.0,SSE,13.8,-,N/A,,Overcast,160,2013-01-27 16:55:00
11:15 AM,31.1,19.6,62,30.17,10.0,SSE,11.5,-,N/A,,Overcast,160,2013-01-27 17:15:00
11:35 AM,31.1,20.1,64,30.14,7.0,NE,12.7,-,N/A,,Overcast,50,2013-01-27 17:35:00
11:55 AM,31.5,20.3,63,30.12,10.0,SE,10.4,18.4,N/A,,Overcast,140,2013-01-27 17:55:00
12:15 PM,31.1,21.6,68,30.11,7.0,SE,10.4,-,N/A,,Overcast,140,2013-01-27 18:15:00
12:35 PM,31.1,22.5,70,30.11,5.0,SSE,8.1,-,N/A,,Overcast,150,2013-01-27 18:35:00
12:55 PM,31.1,23.0,72,30.09,2.5,SE,10.4,-,N/A,,Overcast,130,2013-01-27 18:55:00
1:15 PM,30.2,25.3,82,30.07,2.0,SE,12.7,-,0.01,,Overcast,130,2013-01-27 19:15:00
1:35 PM,30.2,26.2,85,30.06,2.5,SE,12.7,18.4,0.04,,Overcast,130,2013-01-27 19:35:00
1:55 PM,30.7,26.2,83,30.05,5.0,SE,10.4,-,0.04,,Overcast,130,2013-01-27 19:55:00
2:15 PM,30.7,26.4,84,30.03,7.0,SE,11.5,-,N/A,,Overcast,130,2013-01-27 20:15:00
2:35 PM,31.1,26.4,83,30.04,7.0,SE,11.5,-,N/A,,Overcast,130,2013-01-27 20:35:00
2:55 PM,31.1,26.4,83,30.02,7.0,ESE,12.7,-,N/A,,Overcast,120,2013-01-27 20:55:00
3:15 PM,31.5,26.4,82,29.99,7.0,ESE,13.8,-,N/A,,Overcast,120,2013-01-27 21:15:00
3:35 PM,31.8,27.0,82,29.97,5.0,ESE,17.3,-,N/A,,Overcast,120,2013-01-27 21:35:00
3:55 PM,32.0,26.6,80,29.98,5.0,SE,13.8,-,N/A,,Overcast,140,2013-01-27 21:55:00
4:15 PM,32.0,27.7,84,29.95,1.5,SE,13.8,19.6,N/A,,Overcast,130,2013-01-27 22:15:00
4:35 PM,32.0,29.3,90,29.95,1.5,SE,10.4,-,N/A,,Overcast,140,2013-01-27 22:35:00
4:55 PM,32.0,30.6,94,29.94,1.2,SE,11.5,-,N/A,,Overcast,140,2013-01-27 22:55:00
5:15 PM,32.4,31.1,95,29.94,1.5,SSE,10.4,-,N/A,,Overcast,150,2013-01-27 23:15:00
5:35 PM,32.5,31.5,96,29.93,2.0,SSE,10.4,17.3,N/A,,Overcast,150,2013-01-27 23:35:00
5:55 PM,32.9,31.6,95,29.92,2.5,SSE,9.2,-,N/A,,Overcast,150,2013-01-27 23:55:00
6:15 PM,32.7,31.6,96,29.92,3.0,SSE,11.5,16.1,N/A,,Overcast,150,2013-01-28 00:15:00
6:35 PM,32.7,31.8,96,29.92,2.5,SE,8.1,-,N/A,,Overcast,140,2013-01-28 00:35:00
6:55 PM,32.9,32.0,96,29.91,2.5,SSE,8.1,-,N/A,,Overcast,150,2013-01-28 00:55:00
7:15 PM,33.1,32.0,96,29.91,2.5,SSE,8.1,-,N/A,,Overcast,150,2013-01-28 01:15:00
7:35 PM,33.3,32.0,95,29.90,2.5,SSE,5.8,-,N/A,,Overcast,150,2013-01-28 01:35:00
8:15 PM,33.8,32.9,96,29.88,2.5,SE,6.9,-,N/A,,Overcast,130,2013-01-28 02:15:00
8:35 PM,33.8,32.9,96,29.88,3.0,SSE,5.8,-,N/A,,Overcast,150,2013-01-28 02:35:00
8:55 PM,34.0,32.9,96,29.87,2.5,SE,6.9,-,N/A,,Overcast,140,2013-01-28 02:55:00
9:15 PM,34.0,33.1,96,29.87,2.5,SE,4.6,-,N/A,,Overcast,140,2013-01-28 03:15:00
9:35 PM,34.2,33.3,97,29.86,2.5,SSE,6.9,-,N/A,,Overcast,150,2013-01-28 03:35:00
9:55 PM,34.3,33.4,97,29.85,2.5,SSE,6.9,-,N/A,,Overcast,150,2013-01-28 03:55:00
10:15 PM,34.3,33.4,97,29.84,2.5,SE,6.9,-,N/A,,Overcast,140,2013-01-28 04:15:00
10:35 PM,34.5,33.6,97,29.85,2.0,SE,5.8,-,N/A,,Overcast,140,2013-01-28 04:35:00
10:55 PM,34.7,33.8,97,29.84,3.0,SSE,5.8,-,N/A,,Overcast,150,2013-01-28 04:55:00
11:15 PM,34.7,33.8,97,29.83,3.0,SE,5.8,-,0.01,,Overcast,140,2013-01-28 05:15:00
11:35 PM,34.7,34.0,97,29.83,3.0,SE,5.8,-,0.01,,Overcast,140,2013-01-28 05:35:00
11:55 PM,34.7,34.0,97,29.82,2.5,ESE,3.5,-,0.01,,Overcast,120,2013-01-28 05:55:00